,,Stat6,,Stat2,,Stat8,,Stat9,,Stat10,,Wind1,,Wind1,
time,status,PA1M_AVG,status,PR1M_SUM,status,RH1M_AVG,status,SR1M_AVG,status,TA1M_AVG,status,W1dAve1m,status,W1sAve1m,
2005-08-13, 00:00:00,VALID,918.725,VALID,0,VALID,100,VALID,0.0849042,VALID,19.0224,VALID,37,VALID,0.642475,
2005-08-13, 00:01:00,VALID,918.703,VALID,0,VALID,100,VALID,0.101885,VALID,19.0189,VALID,41,VALID,0.559524,
2005-08-13, 00:02:00,VALID,918.698,VALID,0,VALID,100,VALID,0.0679233,VALID,19.006,VALID,45,VALID,0.623476,
2005-08-13, 00:03:00,VALID,918.693,VALID,0,VALID,99.9941,VALID,0.0509425,VALID,18.9869,VALID,48,VALID,0.179688,
2005-08-13, 00:04:00,VALID,918.679,VALID,0,VALID,99.9954,VALID,0.0679233,VALID,18.971,VALID,48,VALID,0.113782,
2005-08-13, 00:05:00,VALID,918.668,VALID,0,VALID,100,VALID,0.0169808,VALID,18.9712,VALID,48,VALID,0.09375,
2005-08-13, 00:06:00,VALID,918.666,VALID,0,VALID,100,VALID,0.0339617,VALID,18.9578,VALID,48,VALID,0.000200321,
2005-08-13, 00:07:00,VALID,918.645,VALID,0,VALID,100,VALID,0.0339617,VALID,18.9712,VALID,47,VALID,0.134084,
2005-08-13, 00:08:00,VALID,918.646,VALID,0,VALID,100,VALID,0.0679233,VALID,18.9613,VALID,47,VALID,0.169829,
2005-08-13, 00:09:00,VALID,918.64,VALID,0,VALID,99.9883,VALID,0.0339617,VALID,18.9643,VALID,47,VALID,0.0200893,
2005-08-13, 00:10:00,VALID,918.637,VALID,0,VALID,99.9608,VALID,0.0849042,VALID,18.961,VALID,47,VALID,0,
2005-08-13, 00:11:00,VALID,918.629,VALID,0,VALID,99.9809,VALID,0.0169808,VALID,18.9613,VALID,47,VALID,0,
2005-08-13, 00:12:00,VALID,918.635,VALID,0,VALID,99.8362,VALID,0.0509425,VALID,18.9551,VALID,47,VALID,0.00892857,
2005-08-13, 00:13:00,VALID,918.64,VALID,0,VALID,99.7879,VALID,0.0339617,VALID,18.9417,VALID,47,VALID,0.0890997,
2005-08-13, 00:14:00,VALID,918.63,VALID,0,VALID,99.6938,VALID,-0.0339617,VALID,18.9362,VALID,47,VALID,0.334517,
2005-08-13, 00:15:00,VALID,918.607,VALID,0,VALID,99.6468,VALID,-0.0169808,VALID,18.9307,VALID,47,VALID,0.0731534,
2005-08-13, 00:16:00,VALID,918.591,VALID,0,VALID,99.4026,VALID,-0.0679233,VALID,18.924,VALID,47,VALID,0,
2005-08-13, 00:17:00,VALID,918.579,VALID,0,VALID,99.2449,VALID,-0.0509425,VALID,18.9401,VALID,47,VALID,0.157703,
2005-08-13, 00:18:00,VALID,918.573,VALID,0,VALID,99.1813,VALID,-0.0679233,VALID,18.9565,VALID,47,VALID,0.0504954,
2005-08-13, 00:19:00,VALID,918.564,VALID,0,VALID,99.058,VALID,-0.0679233,VALID,18.9565,VALID,47,VALID,0,
2005-08-13, 00:20:00,VALID,918.541,VALID,0,VALID,99.0466,VALID,-0.0339617,VALID,18.9595,VALID,47,VALID,0,
2005-08-13, 00:21:00,VALID,918.531,VALID,0,VALID,99.0707,VALID,-0.0849042,VALID,18.9592,VALID,47,VALID,0,
2005-08-13, 00:22:00,VALID,918.509,VALID,0,VALID,99.1445,VALID,-0.0169808,VALID,18.9694,VALID,47,VALID,0.0424924,
2005-08-13, 00:23:00,VALID,918.496,VALID,0,VALID,99.1457,VALID,-0.0509425,VALID,18.9627,VALID,47,VALID,0.000726744,
2005-08-13, 00:24:00,VALID,918.486,VALID,0,VALID,99.2386,VALID,-0.0509425,VALID,18.9595,VALID,45,VALID,0.169779,
2005-08-13, 00:25:00,VALID,918.457,VALID,0,VALID,99.2704,VALID,-0.0849042,VALID,18.9466,VALID,1,VALID,0.299479,
2005-08-13, 00:26:00,VALID,918.427,VALID,0,VALID,99.1712,VALID,-0.0849042,VALID,18.9143,VALID,336,VALID,0.825945,
2005-08-13, 00:27:00,VALID,918.388,VALID,0,VALID,99.2208,VALID,-0.0339617,VALID,18.9046,VALID,352,VALID,1.25709,
2005-08-13, 00:28:00,VALID,918.35,VALID,0,VALID,99.4509,VALID,-0.0849042,VALID,18.8889,VALID,337,VALID,1.25345,
2005-08-13, 00:29:00,VALID,918.334,VALID,0,VALID,98.9512,VALID,-0.0339617,VALID,18.8239,VALID,314,VALID,0.742006,
2005-08-13, 00:30:00,VALID,918.305,VALID,0,VALID,98.693,VALID,-0.0679233,VALID,18.8534,VALID,292,VALID,0.640244,
2005-08-13, 00:31:00,VALID,918.323,VALID,0,VALID,98.6155,VALID,-0.0339617,VALID,18.8695,VALID,291,VALID,0.527716,
2005-08-13, 00:32:00,VALID,918.313,VALID,0,VALID,98.4985,VALID,-0.0509425,VALID,18.8787,VALID,351,VALID,0.460211,
2005-08-13, 00:33:00,VALID,918.307,VALID,0,VALID,98.4705,VALID,-0.0169808,VALID,18.879,VALID,21,VALID,0.511628,
2005-08-13, 00:34:00,VALID,918.291,VALID,0,VALID,98.3777,VALID,-0.0509425,VALID,18.8691,VALID,51,VALID,0.971955,
2005-08-13, 00:35:00,VALID,918.285,VALID,0,VALID,98.276,VALID,-0.0679233,VALID,18.8663,VALID,69,VALID,0.858613,
2005-08-13, 00:36:00,VALID,918.279,VALID,0,VALID,98.192,VALID,-0.0679233,VALID,18.834,VALID,92,VALID,0.798921,
2005-08-13, 00:37:00,VALID,918.265,VALID,0,VALID,98.3014,VALID,-0.0509425,VALID,18.8013,VALID,105,VALID,0.871289,
2005-08-13, 00:38:00,VALID,918.226,VALID,0,VALID,98.4731,VALID,-0.0509425,VALID,18.772,VALID,100,VALID,0.89974,
2005-08-13, 00:39:00,VALID,918.197,VALID,0,VALID,98.6142,VALID,-0.0679233,VALID,18.7501,VALID,90,VALID,0.747713,
2005-08-13, 00:40:00,VALID,918.171,VALID,0,VALID,98.7147,VALID,-0.0679233,VALID,18.7072,VALID,105,VALID,1.04851,
2005-08-13, 00:41:00,VALID,918.159,VALID,0,VALID,98.8812,VALID,-0.0339617,VALID,18.6984,VALID,113,VALID,1.04478,
2005-08-13, 00:42:00,VALID,918.122,VALID,0,VALID,99.1063,VALID,-0.0679233,VALID,18.6922,VALID,112,VALID,1.08501,
2005-08-13, 00:43:00,VALID,918.098,VALID,0,VALID,99.1928,VALID,-0.0509425,VALID,18.6753,VALID,103,VALID,0.81468,
2005-08-13, 00:44:00,VALID,918.081,VALID,0,VALID,99.3568,VALID,-0.0849042,VALID,18.6693,VALID,100,VALID,0.959263,
2005-08-13, 00:45:00,VALID,918.076,VALID,0,VALID,99.4992,VALID,-0.101885,VALID,18.6756,VALID,77,VALID,0.714658,
2005-08-13, 00:46:00,VALID,918.065,VALID,0,VALID,99.615,VALID,-0.0849042,VALID,18.6825,VALID,78,VALID,0.664634,
2005-08-13, 00:47:00,VALID,918.055,VALID,0,VALID,99.7332,VALID,-0.0679233,VALID,18.6922,VALID,77,VALID,0.812322,
2005-08-13, 00:48:00,VALID,918.047,VALID,0,VALID,99.8718,VALID,0.0169808,VALID,18.6753,VALID,72,VALID,0.8125,
2005-08-13, 00:49:00,VALID,918.054,VALID,0,VALID,99.9842,VALID,0,VALID,18.6652,VALID,70,VALID,0.639382,
2005-08-13, 00:50:00,VALID,918.052,VALID,0,VALID,99.9977,VALID,0.0169808,VALID,18.6426,VALID,70,VALID,0.550959,
2005-08-13, 00:51:00,VALID,918.036,VALID,0,VALID,100,VALID,0.0339617,VALID,18.6195,VALID,79,VALID,0.81392,
2005-08-13, 00:52:00,VALID,918.011,VALID,0,VALID,100,VALID,0.0169808,VALID,18.6165,VALID,92,VALID,0.900618,
2005-08-13, 00:53:00,VALID,917.998,VALID,0,VALID,100,VALID,0,VALID,18.617,VALID,80,VALID,0.60973,
2005-08-13, 00:54:00,VALID,917.988,VALID,0,VALID,100,VALID,0,VALID,18.617,VALID,90,VALID,0.776563,
2005-08-13, 00:55:00,VALID,917.973,VALID,0,VALID,100,VALID,0.0169808,VALID,18.6101,VALID,79,VALID,0.533482,
2005-08-13, 00:56:00,VALID,917.957,VALID,0,VALID,100,VALID,0.0169808,VALID,18.6036,VALID,66,VALID,0.562872,
2005-08-13, 00:57:00,VALID,917.953,VALID,0,VALID,100,VALID,0,VALID,18.5745,VALID,62,VALID,0.653706,
2005-08-13, 00:58:00,VALID,917.95,VALID,0,VALID,100,VALID,0.0169808,VALID,18.5681,VALID,62,VALID,0.879317,
2005-08-13, 00:59:00,VALID,917.946,VALID,0,VALID,100,VALID,0.0339617,VALID,18.578,VALID,62,VALID,0.834375,
2005-08-13, 01:00:00,VALID,917.953,VALID,0,VALID,100,VALID,0.0169808,VALID,18.5718,VALID,62,VALID,0.439453,
2005-08-13, 01:01:00,VALID,917.959,VALID,0,VALID,100,VALID,0,VALID,18.5616,VALID,62,VALID,0.185683,
2005-08-13, 01:02:00,VALID,917.951,VALID,0,VALID,100,VALID,0.0169808,VALID,18.5716,VALID,62,VALID,0.0755208,
2005-08-13, 01:03:00,VALID,917.948,VALID,0,VALID,100,VALID,0.0169808,VALID,18.5847,VALID,62,VALID,0.13151,
2005-08-13, 01:04:00,VALID,917.961,VALID,0,VALID,100,VALID,0,VALID,18.6043,VALID,62,VALID,0,
2005-08-13, 01:05:00,VALID,917.961,VALID,0,VALID,100,VALID,0,VALID,18.6071,VALID,62,VALID,0,
2005-08-13, 01:06:00,VALID,917.943,VALID,0,VALID,100,VALID,0.0169808,VALID,18.6168,VALID,62,VALID,0,
2005-08-13, 01:07:00,VALID,917.941,VALID,0,VALID,100,VALID,0,VALID,18.6165,VALID,62,VALID,0,
2005-08-13, 01:08:00,VALID,917.925,VALID,0,VALID,100,VALID,0,VALID,18.6197,VALID,62,VALID,0,
2005-08-13, 01:09:00,VALID,917.913,VALID,0,VALID,100,VALID,0.0339617,VALID,18.6163,VALID,62,VALID,0,
2005-08-13, 01:10:00,VALID,917.901,VALID,0,VALID,100,VALID,0.0169808,VALID,18.6227,VALID,62,VALID,0.127287,
2005-08-13, 01:11:00,VALID,917.867,VALID,0,VALID,100,VALID,0.0509425,VALID,18.6193,VALID,45,VALID,0.511533,
2005-08-13, 01:12:00,VALID,917.861,VALID,0,VALID,100,VALID,0.0339617,VALID,18.6299,VALID,6,VALID,0.695122,
2005-08-13, 01:13:00,VALID,917.849,VALID,0,VALID,100,VALID,0.0509425,VALID,18.6068,VALID,2,VALID,0.618823,
2005-08-13, 01:14:00,VALID,917.84,VALID,0,VALID,100,VALID,0.0169808,VALID,18.5815,VALID,316,VALID,0.884588,
2005-08-13, 01:15:00,VALID,917.844,VALID,0,VALID,100,VALID,0,VALID,18.5584,VALID,301,VALID,0.996466,
2005-08-13, 01:16:00,VALID,917.846,VALID,0,VALID,100,VALID,0,VALID,18.5593,VALID,301,VALID,0.695313,
2005-08-13, 01:17:00,VALID,917.843,VALID,0,VALID,100,VALID,-0.0169808,VALID,18.5328,VALID,301,VALID,0.530007,
2005-08-13, 01:18:00,VALID,917.843,VALID,0,VALID,100,VALID,0,VALID,18.5397,VALID,301,VALID,0.192107,
2005-08-13, 01:19:00,VALID,917.839,VALID,0,VALID,100,VALID,0.0339617,VALID,18.5423,VALID,301,VALID,0,
2005-08-13, 01:20:00,VALID,917.83,VALID,0,VALID,100,VALID,0,VALID,18.5492,VALID,301,VALID,0.0353516,
2005-08-13, 01:21:00,VALID,917.818,VALID,0,VALID,100,VALID,0,VALID,18.5393,VALID,301,VALID,0.0212296,
2005-08-13, 01:22:00,VALID,917.798,VALID,0,VALID,100,VALID,0.0169808,VALID,18.549,VALID,301,VALID,0,
2005-08-13, 01:23:00,VALID,917.774,VALID,0,VALID,100,VALID,0,VALID,18.5529,VALID,301,VALID,0,
2005-08-13, 01:24:00,VALID,917.761,VALID,0,VALID,100,VALID,0,VALID,18.5621,VALID,301,VALID,0,
2005-08-13, 01:25:00,VALID,917.762,VALID,0,VALID,100,VALID,0,VALID,18.5688,VALID,301,VALID,0,
2005-08-13, 01:26:00,VALID,917.781,VALID,0,VALID,100,VALID,0.0169808,VALID,18.5688,VALID,301,VALID,0,
2005-08-13, 01:27:00,VALID,917.789,VALID,0,VALID,100,VALID,0,VALID,18.5817,VALID,301,VALID,0.0591797,
2005-08-13, 01:28:00,VALID,917.788,VALID,0,VALID,100,VALID,0.0509425,VALID,18.5723,VALID,301,VALID,0.345486,
2005-08-13, 01:29:00,VALID,917.793,VALID,0,VALID,100,VALID,-0.0169808,VALID,18.549,VALID,301,VALID,0.32706,
2005-08-13, 01:30:00,VALID,917.776,VALID,0,VALID,100,VALID,-0.0339617,VALID,18.5298,VALID,300,VALID,0.440341,
2005-08-13, 01:31:00,VALID,917.76,VALID,0,VALID,100,VALID,-0.0169808,VALID,18.5333,VALID,285,VALID,0.556323,
2005-08-13, 01:32:00,VALID,917.739,VALID,0,VALID,100,VALID,-0.0679233,VALID,18.5305,VALID,246,VALID,0.333651,
2005-08-13, 01:33:00,VALID,917.739,VALID,0,VALID,100,VALID,0,VALID,18.5566,VALID,246,VALID,0.216016,
2005-08-13, 01:34:00,VALID,917.745,VALID,0,VALID,100,VALID,-0.0339617,VALID,18.5494,VALID,246,VALID,0.219308,
2005-08-13, 01:35:00,VALID,917.754,VALID,0,VALID,100,VALID,-0.0169808,VALID,18.5524,VALID,246,VALID,0.238653,
2005-08-13, 01:36:00,VALID,917.75,VALID,0,VALID,100,VALID,-0.0339617,VALID,18.5559,VALID,246,VALID,0.122622,
2005-08-13, 01:37:00,VALID,917.748,VALID,0,VALID,100,VALID,-0.0509425,VALID,18.5626,VALID,246,VALID,0.444222,
2005-08-13, 01:38:00,VALID,917.755,VALID,0,VALID,100,VALID,-0.0509425,VALID,18.5559,VALID,246,VALID,0.329799,
2005-08-13, 01:39:00,VALID,917.733,VALID,0,VALID,100,VALID,0,VALID,18.5653,VALID,246,VALID,0.285714,
2005-08-13, 01:40:00,VALID,917.714,VALID,0,VALID,100,VALID,-0.0339617,VALID,18.5559,VALID,248,VALID,0.515244,
2005-08-13, 01:41:00,VALID,917.709,VALID,0,VALID,100,VALID,-0.0339617,VALID,18.5593,VALID,250,VALID,0.296494,
2005-08-13, 01:42:00,VALID,917.702,VALID,0,VALID,100,VALID,-0.0169808,VALID,18.5462,VALID,250,VALID,0.472049,
2005-08-13, 01:43:00,VALID,917.711,VALID,0,VALID,100,VALID,-0.0169808,VALID,18.5462,VALID,250,VALID,0.511814,
2005-08-13, 01:44:00,VALID,917.692,VALID,0,VALID,100,VALID,-0.0169808,VALID,18.5365,VALID,250,VALID,0.542783,
2005-08-13, 01:45:00,VALID,917.692,VALID,0,VALID,100,VALID,0,VALID,18.5204,VALID,250,VALID,0.715116,
2005-08-13, 01:46:00,VALID,917.65,VALID,0,VALID,100,VALID,0,VALID,18.504,VALID,250,VALID,0.532158,
2005-08-13, 01:47:00,VALID,917.637,VALID,0,VALID,100,VALID,0,VALID,18.4881,VALID,250,VALID,0.34508,
2005-08-13, 01:48:00,VALID,917.604,VALID,0,VALID,100,VALID,0,VALID,18.4915,VALID,250,VALID,0.27689,
2005-08-13, 01:49:00,VALID,917.592,VALID,0,VALID,100,VALID,0,VALID,18.4816,VALID,250,VALID,0.30028,
2005-08-13, 01:50:00,VALID,917.596,VALID,0,VALID,100,VALID,-0.0169808,VALID,18.4682,VALID,250,VALID,0.42066,
2005-08-13, 01:51:00,VALID,917.599,VALID,0,VALID,100,VALID,0,VALID,18.4786,VALID,250,VALID,0.392857,
2005-08-13, 01:52:00,VALID,917.585,VALID,0,VALID,100,VALID,-0.0509425,VALID,18.4657,VALID,250,VALID,0.36101,
2005-08-13, 01:53:00,VALID,917.581,VALID,0,VALID,100,VALID,-0.0339617,VALID,18.4521,VALID,250,VALID,0.362571,
2005-08-13, 01:54:00,VALID,917.573,VALID,0,VALID,100,VALID,-0.0339617,VALID,18.4558,VALID,250,VALID,0.226935,
2005-08-13, 01:55:00,VALID,917.573,VALID,0,VALID,100,VALID,0,VALID,18.456,VALID,250,VALID,0.122142,
2005-08-13, 01:56:00,VALID,917.55,VALID,0,VALID,100,VALID,-0.0169808,VALID,18.4528,VALID,250,VALID,0.0596418,
2005-08-13, 01:57:00,VALID,917.535,VALID,0,VALID,100,VALID,-0.0509425,VALID,18.4623,VALID,250,VALID,0.246509,
2005-08-13, 01:58:00,VALID,917.524,VALID,0,VALID,100,VALID,0,VALID,18.4659,VALID,250,VALID,0.0658736,
2005-08-13, 01:59:00,VALID,917.504,VALID,0,VALID,100,VALID,-0.0679233,VALID,18.4632,VALID,250,VALID,0,
2005-08-13, 02:00:00,VALID,917.502,VALID,0,VALID,100,VALID,-0.135847,VALID,18.4572,VALID,250,VALID,0.153711,
2005-08-13, 02:01:00,VALID,917.51,VALID,0,VALID,100,VALID,-0.135847,VALID,18.451,VALID,250,VALID,0.0918445,
2005-08-13, 02:02:00,VALID,917.52,VALID,0,VALID,100,VALID,-0.152827,VALID,18.438,VALID,250,VALID,0,
2005-08-13, 02:03:00,VALID,917.531,VALID,0,VALID,100,VALID,-0.101885,VALID,18.4348,VALID,250,VALID,0,
2005-08-13, 02:04:00,VALID,917.537,VALID,0,VALID,100,VALID,-0.135847,VALID,18.444,VALID,250,VALID,0,
2005-08-13, 02:05:00,VALID,917.549,VALID,0,VALID,100,VALID,-0.135847,VALID,18.451,VALID,251,VALID,0.327943,
2005-08-13, 02:06:00,VALID,917.561,VALID,0,VALID,100,VALID,-0.135847,VALID,18.3993,VALID,297,VALID,0.653706,
2005-08-13, 02:07:00,VALID,917.575,VALID,0,VALID,100,VALID,-0.152827,VALID,18.3963,VALID,335,VALID,0.584722,
2005-08-13, 02:08:00,VALID,917.576,VALID,0,VALID,100,VALID,-0.101885,VALID,18.3636,VALID,337,VALID,0.898619,
2005-08-13, 02:09:00,VALID,917.578,VALID,0,VALID,100,VALID,-0.118866,VALID,18.3774,VALID,350,VALID,0.747456,
2005-08-13, 02:10:00,VALID,917.588,VALID,0,VALID,100,VALID,-0.152827,VALID,18.3672,VALID,354,VALID,0.836107,
2005-08-13, 02:11:00,VALID,917.586,VALID,0,VALID,100,VALID,-0.101885,VALID,18.364,VALID,348,VALID,0.954723,
2005-08-13, 02:12:00,VALID,917.592,VALID,0,VALID,100,VALID,-0.186789,VALID,18.3541,VALID,332,VALID,0.283628,
2005-08-13, 02:13:00,VALID,917.59,VALID,0,VALID,100,VALID,-0.118866,VALID,18.3643,VALID,357,VALID,0.76598,
2005-08-13, 02:14:00,VALID,917.578,VALID,0,VALID,100,VALID,-0.0339617,VALID,18.3532,VALID,309,VALID,0.721236,
2005-08-13, 02:15:00,VALID,917.585,VALID,0,VALID,100,VALID,0.0679233,VALID,18.3426,VALID,292,VALID,0.207122,
2005-08-13, 02:16:00,VALID,917.573,VALID,0,VALID,100,VALID,0.0679233,VALID,18.3423,VALID,292,VALID,0.00272529,
2005-08-13, 02:17:00,VALID,917.562,VALID,0,VALID,100,VALID,0.0509425,VALID,18.3317,VALID,292,VALID,0.194404,
2005-08-13, 02:18:00,VALID,917.567,VALID,0,VALID,100,VALID,0.0679233,VALID,18.3453,VALID,264,VALID,0.530849,
2005-08-13, 02:19:00,VALID,917.555,VALID,0,VALID,100,VALID,0.101885,VALID,18.3089,VALID,247,VALID,0.51181,
2005-08-13, 02:20:00,VALID,917.55,VALID,0,VALID,100,VALID,0.0679233,VALID,18.3059,VALID,246,VALID,0.283913,
2005-08-13, 02:21:00,VALID,917.573,VALID,0,VALID,100,VALID,0.0849042,VALID,18.3128,VALID,247,VALID,0.278299,
2005-08-13, 02:22:00,VALID,917.566,VALID,0,VALID,100,VALID,0.101885,VALID,18.3059,VALID,247,VALID,0.0517113,
2005-08-13, 02:23:00,VALID,917.588,VALID,0,VALID,100,VALID,0.0679233,VALID,18.3094,VALID,247,VALID,0,
2005-08-13, 02:24:00,VALID,917.599,VALID,0,VALID,100,VALID,0.0849042,VALID,18.3057,VALID,247,VALID,0,
2005-08-13, 02:25:00,VALID,917.61,VALID,0,VALID,100,VALID,0.0509425,VALID,18.3094,VALID,247,VALID,0,
2005-08-13, 02:26:00,VALID,917.62,VALID,0,VALID,100,VALID,0.0679233,VALID,18.3188,VALID,246,VALID,0.0670856,
2005-08-13, 02:27:00,VALID,917.629,VALID,0,VALID,100,VALID,0.0849042,VALID,18.3287,VALID,245,VALID,0.15253,
2005-08-13, 02:28:00,VALID,917.632,VALID,0,VALID,100,VALID,0.101885,VALID,18.3315,VALID,245,VALID,0,
2005-08-13, 02:29:00,VALID,917.629,VALID,0,VALID,100,VALID,0.0339617,VALID,18.3423,VALID,245,VALID,0.0171131,
2005-08-13, 02:30:00,VALID,917.592,VALID,0,VALID,100,VALID,0,VALID,18.3527,VALID,326,VALID,0.57431,
2005-08-13, 02:31:00,VALID,917.571,VALID,0,VALID,100,VALID,0.0169808,VALID,18.3624,VALID,17,VALID,0.958333,
2005-08-13, 02:32:00,VALID,917.58,VALID,0,VALID,100,VALID,0,VALID,18.3525,VALID,17,VALID,0.769354,
2005-08-13, 02:33:00,VALID,917.594,VALID,0,VALID,100,VALID,0,VALID,18.3297,VALID,17,VALID,0.350836,
2005-08-13, 02:34:00,VALID,917.61,VALID,0,VALID,100,VALID,0,VALID,18.3073,VALID,17,VALID,0.0308949,
2005-08-13, 02:35:00,VALID,917.62,VALID,0,VALID,100,VALID,0,VALID,18.2847,VALID,291,VALID,0.455793,
2005-08-13, 02:36:00,VALID,917.609,VALID,0,VALID,100,VALID,0.0169808,VALID,18.2911,VALID,221,VALID,0.488377,
2005-08-13, 02:37:00,VALID,917.595,VALID,0,VALID,100,VALID,0.0169808,VALID,18.2944,VALID,221,VALID,0.009375,
2005-08-13, 02:38:00,VALID,917.591,VALID,0,VALID,100,VALID,0,VALID,18.2879,VALID,221,VALID,0.00109012,
2005-08-13, 02:39:00,VALID,917.605,VALID,0,VALID,100,VALID,0,VALID,18.2845,VALID,221,VALID,0.0452009,
2005-08-13, 02:40:00,VALID,917.611,VALID,0,VALID,100,VALID,0,VALID,18.3011,VALID,221,VALID,0.292696,
2005-08-13, 02:41:00,VALID,917.618,VALID,0,VALID,100,VALID,0.0339617,VALID,18.2911,VALID,221,VALID,0.414807,
2005-08-13, 02:42:00,VALID,917.606,VALID,0,VALID,100,VALID,0.0169808,VALID,18.2911,VALID,221,VALID,0.329268,
2005-08-13, 02:43:00,VALID,917.596,VALID,0,VALID,100,VALID,0,VALID,18.3073,VALID,221,VALID,0.00500801,
2005-08-13, 02:44:00,VALID,917.592,VALID,0,VALID,100,VALID,0.0169808,VALID,18.3167,VALID,221,VALID,0,
2005-08-13, 02:45:00,VALID,917.586,VALID,0,VALID,100,VALID,0,VALID,18.3101,VALID,221,VALID,0,
2005-08-13, 02:46:00,VALID,917.617,VALID,0,VALID,100,VALID,0,VALID,18.3271,VALID,221,VALID,0,
2005-08-13, 02:47:00,VALID,917.61,VALID,0,VALID,100,VALID,-0.0339617,VALID,18.3269,VALID,221,VALID,0,
2005-08-13, 02:48:00,VALID,917.629,VALID,0,VALID,100,VALID,0,VALID,18.346,VALID,221,VALID,0,
2005-08-13, 02:49:00,VALID,917.63,VALID,0,VALID,100,VALID,0,VALID,18.3557,VALID,222,VALID,0.265988,
2005-08-13, 02:50:00,VALID,917.629,VALID,0,VALID,100,VALID,0,VALID,18.3428,VALID,352,VALID,0.514535,
2005-08-13, 02:51:00,VALID,917.647,VALID,0,VALID,99.9791,VALID,-0.0169808,VALID,18.3077,VALID,355,VALID,0.390067,
2005-08-13, 02:52:00,VALID,917.63,VALID,0,VALID,99.9201,VALID,0,VALID,18.2911,VALID,355,VALID,0.172433,
2005-08-13, 02:53:00,VALID,917.621,VALID,0,VALID,99.8044,VALID,0,VALID,18.2685,VALID,355,VALID,0.332031,
2005-08-13, 02:54:00,VALID,917.641,VALID,0,VALID,99.6976,VALID,-0.0509425,VALID,18.2656,VALID,355,VALID,0.172852,
2005-08-13, 02:55:00,VALID,917.642,VALID,0,VALID,99.6785,VALID,-0.0169808,VALID,18.2593,VALID,355,VALID,0,
2005-08-13, 02:56:00,VALID,917.634,VALID,0,VALID,99.6353,VALID,0,VALID,18.2653,VALID,355,VALID,0,
2005-08-13, 02:57:00,VALID,917.618,VALID,0,VALID,99.5285,VALID,-0.0169808,VALID,18.2494,VALID,355,VALID,0,
2005-08-13, 02:58:00,VALID,917.605,VALID,0,VALID,99.3886,VALID,0,VALID,18.236,VALID,355,VALID,0,
2005-08-13, 02:59:00,VALID,917.584,VALID,0,VALID,99.1457,VALID,-0.0169808,VALID,18.2402,VALID,355,VALID,0,
2005-08-13, 03:00:00,VALID,917.592,VALID,0,VALID,98.8545,VALID,0,VALID,18.2337,VALID,355,VALID,0,
2005-08-13, 03:01:00,VALID,917.594,VALID,0,VALID,98.5328,VALID,0,VALID,18.2305,VALID,355,VALID,0,
2005-08-13, 03:02:00,VALID,917.577,VALID,0,VALID,98.2556,VALID,0,VALID,18.2199,VALID,355,VALID,0,
2005-08-13, 03:03:00,VALID,917.553,VALID,0,VALID,97.9466,VALID,0,VALID,18.2593,VALID,355,VALID,0,
2005-08-13, 03:04:00,VALID,917.542,VALID,0,VALID,97.953,VALID,-0.0169808,VALID,18.3011,VALID,355,VALID,0,
2005-08-13, 03:05:00,VALID,917.543,VALID,0,VALID,98.1869,VALID,-0.0169808,VALID,18.3463,VALID,355,VALID,0,
2005-08-13, 03:06:00,VALID,917.532,VALID,0,VALID,98.3039,VALID,-0.0169808,VALID,18.3624,VALID,355,VALID,0,
2005-08-13, 03:07:00,VALID,917.508,VALID,0,VALID,98.2391,VALID,-0.0339617,VALID,18.3562,VALID,355,VALID,0,
2005-08-13, 03:08:00,VALID,917.497,VALID,0,VALID,98.2137,VALID,-0.0169808,VALID,18.3666,VALID,355,VALID,0,
2005-08-13, 03:09:00,VALID,917.497,VALID,0,VALID,98.3332,VALID,-0.0169808,VALID,18.3594,VALID,355,VALID,0,
2005-08-13, 03:10:00,VALID,917.491,VALID,0,VALID,98.2976,VALID,-0.0169808,VALID,18.346,VALID,355,VALID,0,
2005-08-13, 03:11:00,VALID,917.474,VALID,0,VALID,98.1297,VALID,-0.0169808,VALID,18.346,VALID,355,VALID,0,
2005-08-13, 03:12:00,VALID,917.454,VALID,0,VALID,97.864,VALID,0,VALID,18.3564,VALID,355,VALID,0,
2005-08-13, 03:13:00,VALID,917.416,VALID,0,VALID,98.1946,VALID,0,VALID,18.3887,VALID,356,VALID,0.225446,
2005-08-13, 03:14:00,VALID,917.392,VALID,0,VALID,98.3421,VALID,0.0169808,VALID,18.3885,VALID,12,VALID,1.00934,
2005-08-13, 03:15:00,VALID,917.384,VALID,0,VALID,97.8233,VALID,0,VALID,18.3428,VALID,13,VALID,0.820313,
2005-08-13, 03:16:00,VALID,917.381,VALID,0,VALID,97.5689,VALID,0.0169808,VALID,18.34,VALID,1,VALID,0.343178,
2005-08-13, 03:17:00,VALID,917.375,VALID,0,VALID,97.3121,VALID,0,VALID,18.3331,VALID,348,VALID,0.422783,
2005-08-13, 03:18:00,VALID,917.368,VALID,0,VALID,97.1544,VALID,0,VALID,18.346,VALID,354,VALID,0.612723,
2005-08-13, 03:19:00,VALID,917.355,VALID,0,VALID,97.0679,VALID,-0.0339617,VALID,18.3594,VALID,2,VALID,0.336632,
2005-08-13, 03:20:00,VALID,917.351,VALID,0,VALID,96.9344,VALID,-0.0169808,VALID,18.3594,VALID,2,VALID,0.250363,
2005-08-13, 03:21:00,VALID,917.341,VALID,0,VALID,96.5466,VALID,0,VALID,18.3557,VALID,2,VALID,0.382813,
2005-08-13, 03:22:00,VALID,917.325,VALID,0,VALID,96.3253,VALID,-0.0169808,VALID,18.3753,VALID,2,VALID,0.285156,
2005-08-13, 03:23:00,VALID,917.301,VALID,0,VALID,96.1816,VALID,0,VALID,18.3719,VALID,2,VALID,0.455602,
2005-08-13, 03:24:00,VALID,917.29,VALID,0,VALID,96.2783,VALID,-0.0169808,VALID,18.3981,VALID,24,VALID,0.665838,
2005-08-13, 03:25:00,VALID,917.278,VALID,0,VALID,95.8942,VALID,0,VALID,18.4048,VALID,25,VALID,0.698401,
2005-08-13, 03:26:00,VALID,917.291,VALID,0,VALID,95.4746,VALID,-0.0169808,VALID,18.43,VALID,25,VALID,0.253239,
2005-08-13, 03:27:00,VALID,917.302,VALID,0,VALID,95.275,VALID,-0.0169808,VALID,18.4563,VALID,25,VALID,0,
2005-08-13, 03:28:00,VALID,917.289,VALID,0,VALID,95.4034,VALID,0,VALID,18.4786,VALID,25,VALID,0,
2005-08-13, 03:29:00,VALID,917.283,VALID,0,VALID,95.172,VALID,-0.0169808,VALID,18.501,VALID,25,VALID,0,
2005-08-13, 03:30:00,VALID,917.28,VALID,0,VALID,94.7422,VALID,0,VALID,18.5045,VALID,25,VALID,0,
2005-08-13, 03:31:00,VALID,917.263,VALID,0,VALID,94.3976,VALID,-0.0339617,VALID,18.5111,VALID,25,VALID,0,
2005-08-13, 03:32:00,VALID,917.266,VALID,0,VALID,93.9271,VALID,0,VALID,18.5492,VALID,16,VALID,0.272347,
2005-08-13, 03:33:00,VALID,917.283,VALID,0,VALID,94.2564,VALID,-0.0169808,VALID,18.6564,VALID,9,VALID,0.0112847,
2005-08-13, 03:34:00,VALID,917.295,VALID,0,VALID,94.657,VALID,0,VALID,18.6892,VALID,9,VALID,0.0617898,
2005-08-13, 03:35:00,VALID,917.309,VALID,0,VALID,94.4751,VALID,-0.0509425,VALID,18.679,VALID,9,VALID,0.387251,
2005-08-13, 03:36:00,VALID,917.328,VALID,0,VALID,94.0275,VALID,0,VALID,18.659,VALID,9,VALID,0.393973,
2005-08-13, 03:37:00,VALID,917.325,VALID,0,VALID,94.1089,VALID,0,VALID,18.6686,VALID,9,VALID,0.0474201,
2005-08-13, 03:38:00,VALID,917.326,VALID,0,VALID,94.9202,VALID,0,VALID,18.6855,VALID,9,VALID,0.0205793,
2005-08-13, 03:39:00,VALID,917.332,VALID,0,VALID,95.3271,VALID,0,VALID,18.6823,VALID,9,VALID,0.0200893,
2005-08-13, 03:40:00,VALID,917.34,VALID,0,VALID,95.5433,VALID,0,VALID,18.6592,VALID,9,VALID,0.0665838,
2005-08-13, 03:41:00,VALID,917.37,VALID,0,VALID,95.5624,VALID,0,VALID,18.6336,VALID,9,VALID,0.140253,